Time,TemperatureF,DewpointF,PressureIn,WindDirection,WindDirectionDegrees,WindSpeedMPH,WindSpeedGustMPH,Humidity,HourlyPrecipIn,Conditions,Clouds,dailyrainin,SoftwareType,DateUTC
2013-04-01 00:19:00,41.7,41.7,29.79,WSW,242,0.0,5.2,100,0.00,,BKN100,0.00,VWS V14.00,2013-04-01 04:19:00,
2013-04-01 00:39:00,41.1,41.1,29.79,South,191,0.0,6.3,100,0.00,,BKN100,0.00,VWS V14.00,2013-04-01 04:39:00,
2013-04-01 00:59:00,39.5,39.5,29.78,SSW,195,0.0,5.1,100,0.00,,SCT080,0.00,VWS V14.00,2013-04-01 04:59:00,
2013-04-01 01:19:00,39.7,39.7,29.78,SSE,166,0.0,5.2,100,0.00,,SCT080,0.00,VWS V14.00,2013-04-01 05:19:00,
2013-04-01 01:39:00,40.0,40.0,29.78,SSW,198,4.6,9.1,100,0.00,,SCT080,0.00,VWS V14.00,2013-04-01 05:39:00,
2013-04-01 01:59:00,38.2,38.2,29.79,SW,233,0.0,6.8,100,0.00,,SCT070,0.00,VWS V14.00,2013-04-01 05:59:00,
2013-04-01 02:19:00,39.0,39.0,29.78,SSW,195,0.0,5.7,100,0.00,,SCT070,0.00,VWS V14.00,2013-04-01 06:19:00,
2013-04-01 02:39:00,37.1,37.1,29.77,SSW,195,0.0,0.0,100,0.00,,SCT070,0.00,VWS V14.00,2013-04-01 06:39:00,
2013-04-01 02:59:00,37.3,37.3,29.77,SSW,195,0.0,0.0,100,0.00,,FEW070,0.00,VWS V14.00,2013-04-01 06:59:00,
2013-04-01 03:19:00,36.8,36.8,29.77,SSW,195,0.0,0.0,100,0.00,,FEW070,0.00,VWS V14.00,2013-04-01 07:19:00,
2013-04-01 03:39:00,36.2,36.2,29.78,SSW,195,0.0,0.0,100,0.00,,FEW070,0.00,VWS V14.00,2013-04-01 07:39:00,
2013-04-01 03:59:00,36.4,36.4,29.78,SSE,152,0.0,4.6,100,0.00,,,0.00,VWS V14.00,2013-04-01 07:59:00,
2013-04-01 04:19:00,35.5,35.5,29.78,SW,224,0.0,3.4,100,0.00,,,0.00,VWS V14.00,2013-04-01 08:19:00,
2013-04-01 04:39:00,36.2,36.2,29.78,WSW,242,0.0,0.0,100,0.00,,,0.00,VWS V14.00,2013-04-01 08:39:00,
2013-04-01 04:59:00,37.1,37.1,29.78,South,174,0.0,3.5,100,0.00,,,0.00,VWS V14.00,2013-04-01 08:59:00,
2013-04-01 05:19:00,36.3,36.3,29.78,SW,222,3.4,4.5,100,0.00,,,0.00,VWS V14.00,2013-04-01 09:19:00,
2013-04-01 05:39:00,34.9,34.9,29.78,SW,215,0.0,5.8,100,0.00,,,0.00,VWS V14.00,2013-04-01 09:39:00,
2013-04-01 05:59:00,35.7,35.7,29.77,SW,224,0.0,4.9,100,0.00,,,0.00,VWS V14.00,2013-04-01 09:59:00,
2013-04-01 06:19:00,34.0,34.0,29.76,SSE,156,0.0,5.2,100,0.00,,,0.00,VWS V14.00,2013-04-01 10:19:00,
2013-04-01 06:39:00,34.0,34.0,29.77,SSE,156,0.0,0.0,100,0.00,,,0.00,VWS V14.00,2013-04-01 10:39:00,
2013-04-01 06:59:00,36.2,36.2,29.77,SW,218,0.0,4.3,100,0.00,,CLR,0.00,VWS V14.00,2013-04-01 10:59:00,
2013-04-01 07:19:00,34.3,34.3,29.78,SSW,194,0.0,6.2,100,0.00,,CLR,0.00,VWS V14.00,2013-04-01 11:19:00,
2013-04-01 07:39:00,35.0,35.0,29.78,SSW,197,4.9,6.7,100,0.00,,CLR,0.00,VWS V14.00,2013-04-01 11:39:00,
2013-04-01 07:59:00,35.1,35.1,29.79,SSE,149,0.0,7.3,100,0.00,,,0.00,VWS V14.00,2013-04-01 11:59:00,
2013-04-01 08:19:00,39.3,39.3,29.78,SSW,200,2.6,9.3,100,0.00,,,0.00,VWS V14.00,2013-04-01 12:19:00,
2013-04-01 08:39:00,41.8,41.8,29.78,SSW,197,3.4,8.1,100,0.00,,,0.00,VWS V14.00,2013-04-01 12:39:00,
2013-04-01 08:59:00,44.0,44.0,29.78,South,173,4.7,9.2,100,0.00,,,0.00,VWS V14.00,2013-04-01 12:59:00,
2013-04-01 09:19:00,45.1,45.1,29.77,SW,222,0.0,9.9,100,0.00,,SCT200,0.00,VWS V14.00,2013-04-01 13:19:00,
2013-04-01 09:39:00,47.4,47.4,29.77,WSW,243,5.3,12.3,100,0.00,,SCT200,0.00,VWS V14.00,2013-04-01 13:39:00,
2013-04-01 09:59:00,47.7,47.2,29.76,SSW,208,0.0,13.5,98,0.00,,BKN220,0.00,VWS V14.00,2013-04-01 13:59:00,
2013-04-01 10:19:00,50.7,46.6,29.76,SSW,198,4.8,12.7,86,0.00,,BKN220,0.00,VWS V14.00,2013-04-01 14:19:00,
2013-04-01 10:39:00,53.8,44.5,29.76,SW,219,0.0,14.7,71,0.00,,BKN220,0.00,VWS V14.00,2013-04-01 14:39:00,
2013-04-01 10:59:00,55.5,42.8,29.76,West,260,7.4,13.5,62,0.00,,BKN220,0.00,VWS V14.00,2013-04-01 14:59:00,
2013-04-01 11:19:00,57.0,42.2,29.75,West,267,7.5,12.2,58,0.00,,BKN220,0.00,VWS V14.00,2013-04-01 15:19:00,
2013-04-01 11:39:00,57.7,39.9,29.74,WNW,287,8.9,19.7,51,0.00,,BKN220,0.00,VWS V14.00,2013-04-01 15:39:00,
2013-04-01 11:59:00,58.0,39.0,29.74,WSW,245,5.6,19.5,49,0.00,,SCT220,0.00,VWS V14.00,2013-04-01 15:59:00,
2013-04-01 12:19:00,56.2,37.3,29.74,WNW,298,7.5,19.6,49,0.00,,SCT220,0.00,VWS V14.00,2013-04-01 16:19:00,
2013-04-01 12:39:00,58.4,38.8,29.73,West,270,5.4,16.3,48,0.00,,SCT220,0.00,VWS V14.00,2013-04-01 16:39:00,
2013-04-01 12:59:00,58.4,38.3,29.73,West,267,7.5,16.8,47,0.00,,BKN220,0.00,VWS V14.00,2013-04-01 16:59:00,
2013-04-01 13:19:00,57.6,37.7,29.73,WNW,290,5.6,13.0,47,0.00,,BKN220,0.00,VWS V14.00,2013-04-01 17:19:00,
2013-04-01 13:39:00,59.1,36.3,29.72,WSW,248,12.4,17.1,42,0.00,,BKN220,0.00,VWS V14.00,2013-04-01 17:39:00,
2013-04-01 13:59:00,58.1,36.7,29.72,West,278,5.0,18.6,45,0.00,,SCT250,0.00,VWS V14.00,2013-04-01 17:59:00,
2013-04-01 14:19:00,57.9,36.0,29.72,WNW,297,16.3,23.9,44,0.00,,SCT250,0.00,VWS V14.00,2013-04-01 18:19:00,
2013-04-01 14:39:00,58.8,35.9,29.72,WNW,283,20.1,23.4,42,0.00,,SCT250,0.00,VWS V14.00,2013-04-01 18:39:00,
2013-04-01 14:59:00,57.2,38.3,29.74,West,262,15.4,22.4,49,0.00,,SCT250,0.00,VWS V14.00,2013-04-01 18:59:00,
2013-04-01 15:19:00,53.9,37.6,29.75,NW,305,15.8,16.5,54,0.00,,-RA,0.00,VWS V14.00,2013-04-01 19:19:00,
2013-04-01 15:39:00,53.4,37.8,29.76,NW,322,11.2,20.4,55,0.00,,-RA,0.00,VWS V14.00,2013-04-01 19:39:00,
2013-04-01 15:59:00,53.8,36.8,29.77,West,278,11.6,22.2,52,0.00,,BKN250,0.00,VWS V14.00,2013-04-01 19:59:00,
2013-04-01 16:19:00,54.5,36.4,29.77,West,276,8.5,29.8,50,0.00,,BKN250,0.00,VWS V14.00,2013-04-01 20:19:00,
2013-04-01 16:39:00,52.1,35.0,29.77,NNW,339,6.7,28.4,52,0.00,,BKN250,0.00,VWS V14.00,2013-04-01 20:39:00,
2013-04-01 16:59:00,50.0,33.4,29.78,NW,316,10.2,19.6,53,0.00,,BKN250,0.00,VWS V14.00,2013-04-01 20:59:00,
2013-04-01 17:19:00,49.7,33.7,29.80,WNW,292,8.5,22.7,54,0.00,,BKN250,0.00,VWS V14.00,2013-04-01 21:19:00,
2013-04-01 17:39:00,49.0,32.5,29.80,NNW,340,8.8,25.6,53,0.00,,BKN250,0.00,VWS V14.00,2013-04-01 21:39:00,
2013-04-01 17:59:00,49.2,31.0,29.82,NW,316,10.7,23.7,49,0.00,,BKN200,0.00,VWS V14.00,2013-04-01 21:59:00,
2013-04-01 18:19:00,48.5,29.9,29.83,NW,305,12.4,26.3,48,0.00,,BKN200,0.00,VWS V14.00,2013-04-01 22:19:00,
2013-04-01 18:39:00,46.2,29.5,29.84,WNW,287,7.7,23.5,52,0.00,,BKN200,0.00,VWS V14.00,2013-04-01 22:39:00,
2013-04-01 18:59:00,46.1,29.5,29.85,WSW,257,5.1,24.2,52,0.00,,SCT200,0.00,VWS V14.00,2013-04-01 22:59:00,
2013-04-01 19:19:00,45.2,29.0,29.87,WNW,302,6.8,18.4,53,0.00,,SCT200,0.00,VWS V14.00,2013-04-01 23:19:00,
2013-04-01 19:39:00,43.4,27.0,29.88,NW,305,5.5,20.8,52,0.00,,SCT200,0.00,VWS V14.00,2013-04-01 23:39:00,
2013-04-01 19:59:00,43.1,27.3,29.89,NW,323,7.0,14.2,53,0.00,,SCT110,0.00,VWS V14.00,2013-04-01 23:59:00,
2013-04-01 20:19:00,42.2,27.2,29.90,NW,311,9.4,16.9,55,0.00,,SCT110,0.00,VWS V14.00,2013-04-02 00:19:00,
2013-04-01 20:39:00,41.5,25.2,29.91,WNW,294,11.2,18.2,52,0.00,,SCT110,0.00,VWS V14.00,2013-04-02 00:39:00,
2013-04-01 20:59:00,40.9,24.4,29.92,NW,304,5.3,13.4,51,0.00,,SCT110,0.00,VWS V14.00,2013-04-02 00:59:00,
2013-04-01 21:19:00,41.4,25.0,29.93,SSW,197,0.0,11.9,52,0.00,,SCT110,0.00,VWS V14.00,2013-04-02 01:19:00,
2013-04-01 21:39:00,40.6,24.9,29.95,WSW,249,0.0,7.1,53,0.00,,SCT110,0.00,VWS V14.00,2013-04-02 01:39:00,
2013-04-01 21:59:00,38.0,24.2,29.95,WSW,246,0.0,5.7,57,0.00,,FEW085,0.00,VWS V14.00,2013-04-02 01:59:00,
2013-04-01 22:19:00,37.3,24.1,29.96,WNW,285,3.4,7.1,59,0.00,,FEW085,0.00,VWS V14.00,2013-04-02 02:19:00,
2013-04-01 22:39:00,37.8,25.5,29.96,WNW,283,0.0,8.1,61,0.00,,FEW085,0.00,VWS V14.00,2013-04-02 02:39:00,
2013-04-01 22:59:00,35.6,24.6,29.97,WNW,283,0.0,0.0,64,0.00,,CLR,0.00,VWS V14.00,2013-04-02 02:59:00,
2013-04-01 23:19:00,35.2,25.8,29.97,WNW,283,0.0,0.0,68,0.00,,BKN130,0.00,VWS V14.00,2013-04-02 03:19:00,
2013-04-01 23:39:00,34.2,26.0,29.98,WNW,283,0.0,0.0,72,0.00,,BKN130,0.00,VWS V14.00,2013-04-02 03:39:00,